Location: Newark
(31.5350°N, 35.0986°E)
Time: 05:29:25
(UTC+00:00)

Courier 1B - Pass Details

Date: 20 September 2019
Orbit: 962 x 1209 km, 28.3° (Epoch: 19 October)

Event Time Altitude Azimuth Distance (km) Brightness Sun altitude
Exits shadow 01:00:52 12° 160° (SSE) 2,571 9.6 -31.0°
Maximum altitude 01:02:07 13° 148° (SSE) 2,540 9.7 -30.7°
Drops below altitude 10° 01:05:02 10° 122° (ESE) 2,795 10.3 -30.1°
Sets 01:09:31 0° 97° (E) 3,807 11.5 -29.3°
